TimeEDT,TemperatureF,Dew PointF,Humidity,Sea Level PressureIn,VisibilityMPH,Wind Direction,Wind SpeedMPH,Gust SpeedMPH,PrecipitationIn,Events,Conditions,WindDirDegrees,DateUTC
12:58 AM,78.1,69.1,74,29.80,10.0,South,9.2,-,N/A,,Clear,180,2013-09-22 04:58:00
1:58 AM,77.0,69.1,76,29.80,10.0,SSW,8.1,-,N/A,,Clear,200,2013-09-22 05:58:00
2:58 AM,75.9,69.1,79,29.79,10.0,SSW,9.2,-,N/A,,Mostly Cloudy,210,2013-09-22 06:58:00
3:58 AM,75.0,70.0,84,29.78,10.0,SSW,6.9,-,N/A,,Partly Cloudy,210,2013-09-22 07:58:00
4:58 AM,75.0,71.1,87,29.77,10.0,SSW,8.1,-,N/A,,Clear,200,2013-09-22 08:58:00
5:58 AM,73.9,72.0,93,29.78,10.0,SW,4.6,-,0.01,,Partly Cloudy,230,2013-09-22 09:58:00
6:58 AM,73.9,72.0,93,29.78,10.0,SSW,4.6,-,0.01,,Clear,210,2013-09-22 10:58:00
7:58 AM,73.9,72.0,93,29.78,10.0,South,4.6,-,0.01,,Clear,190,2013-09-22 11:58:00
8:58 AM,75.0,73.0,94,29.79,10.0,SW,5.8,-,N/A,,Clear,220,2013-09-22 12:58:00
9:58 AM,77.0,73.0,88,29.79,10.0,SSW,9.2,-,N/A,,Scattered Clouds,200,2013-09-22 13:58:00
10:58 AM,80.1,73.9,81,29.80,10.0,SW,10.4,-,N/A,,Mostly Cloudy,230,2013-09-22 14:58:00
11:58 AM,82.0,73.0,74,29.80,10.0,SW,10.4,-,N/A,,Mostly Cloudy,230,2013-09-22 15:58:00
12:58 PM,82.9,73.0,72,29.80,10.0,WSW,11.5,-,N/A,,Partly Cloudy,240,2013-09-22 16:58:00
1:11 PM,82.4,73.4,74,29.80,10.0,West,8.1,-,N/A,,Mostly Cloudy,260,2013-09-22 17:11:00
1:21 PM,82.4,73.4,74,29.80,10.0,WSW,9.2,-,N/A,,Mostly Cloudy,250,2013-09-22 17:21:00
1:58 PM,82.0,73.0,74,29.79,10.0,West,8.1,-,0.00,,Overcast,280,2013-09-22 17:58:00
2:58 PM,82.0,73.0,74,29.78,10.0,West,8.1,-,0.00,Rain,Light Rain,260,2013-09-22 18:58:00
3:58 PM,81.0,72.0,74,29.79,10.0,West,11.5,-,0.00,,Partly Cloudy,270,2013-09-22 19:58:00
4:58 PM,79.0,73.9,84,29.81,6.0,West,9.2,-,0.01,Rain,Light Rain,260,2013-09-22 20:58:00
5:58 PM,75.0,73.0,94,29.82,6.0,WNW,5.8,-,0.01,Rain,Light Rain,300,2013-09-22 21:58:00
6:58 PM,75.9,73.0,91,29.81,6.0,West,4.6,-,0.00,Rain,Light Rain,260,2013-09-22 22:58:00
7:58 PM,75.0,72.0,90,29.82,10.0,West,3.5,-,0.00,,Mostly Cloudy,270,2013-09-22 23:58:00
8:58 PM,73.9,72.0,93,29.84,10.0,WSW,4.6,-,N/A,,Clear,240,2013-09-23 00:58:00
9:58 PM,73.9,72.0,93,29.87,10.0,Calm,Calm,-,N/A,,Clear,0,2013-09-23 01:58:00
10:58 PM,73.0,71.1,93,29.87,10.0,NW,3.5,-,N/A,,Clear,320,2013-09-23 02:58:00
11:58 PM,73.0,71.1,93,29.87,10.0,SW,3.5,-,N/A,,Clear,230,2013-09-23 03:58:00